Flight Track Log - Related Links

Times and Time Zones

All times are in EDT time to prevent confusion due to time zone crossing. See the EJA834P flight status page for this flight to view local times or setup timezone preferences in your user account.

Time Position Orientation Groundspeed Altitude Reporting Facility
EDT Latitude Longitude Course Direction KTS MPH feet Rate Location/Type
Thu 06:22:32 PM 40.4767 -107.2061 203° Southwest 33 38 6,500  Level Denver Center
Thu 06:23:34 PM 40.5006 -107.2628 299° West 138 159 9,300 2,758 Climbing Denver Center
Thu 06:24:36 PM 40.5472 -107.2219 34° Northeast 226 260 12,200 2,710 Climbing Denver Center
Thu 06:25:38 PM 40.5650 -107.1336 75° East 261 300 14,900 1,790 Climbing Denver Center
Thu 06:26:00 PM 40.5518 -106.3586 82° East  Level Estimated
Thu 06:26:40 PM 40.5842 -107.0203 77° East 318 366 15,900  Level Denver Center
Thu 06:27:42 PM 40.6044 -106.8731 80° East 340 391 19,800 2,710 Climbing Denver Center
Thu 06:28:44 PM 40.6197 -106.7619 80° East 314 361 21,500 1,161 Climbing Denver Center
Thu 06:29:46 PM 40.6394 -106.6297 79° East 362 417 22,200 1,113 Climbing Denver Center
Thu 06:30:48 PM 40.6625 -106.4694 79° East 406 467 23,800 1,694 Climbing Denver Center
Thu 06:31:50 PM 40.6831 -106.3283 79° East 410 472 25,700 1,984 Climbing Denver Center
Thu 06:32:52 PM 40.7050 -106.1603 80° East 415 478 27,900 1,742 Climbing Denver Center
Thu 06:33:54 PM 40.7247 -106.0208 79° East 417 480 29,300 1,392 Climbing Denver Center
Thu 06:34:57 PM 40.7450 -105.8669 80° East 425 489 30,800 1,392 Climbing Denver Center
Thu 06:35:59 PM 40.7658 -105.7125 80° East 428 493 32,200 1,548 Climbing Denver Center
Thu 06:37:01 PM 40.7911 -105.5239 80° East 434 499 34,000 1,597 Climbing Denver Center
Thu 06:38:03 PM 40.8106 -105.3681 81° East 432 497 35,500 1,355 Climbing Denver Center
Thu 06:39:05 PM 40.8308 -105.2164 80° East 425 489 36,800 919 Climbing Denver Center
Thu 06:40:07 PM 40.8514 -105.0586 80° East 430 495 37,400 581 Climbing Denver Center
Thu 06:41:09 PM 40.8711 -104.8936 81° East 449 517 38,000 774 Climbing Denver Center
Thu 06:42:11 PM 40.8919 -104.7286 80° East 455 524 39,000 1,065 Climbing Denver Center
Thu 06:43:13 PM 40.9158 -104.5386 80° East 443 510 40,200 968 Climbing Denver Center
Thu 06:44:15 PM 40.9350 -104.3825 81° East 434 499 41,000 390 Climbing Denver Center
Thu 06:45:16 PM 40.9539 -104.2250 81° East 434 499 41,000  Level Denver Center
Thu 06:46:18 PM 40.9725 -104.0625 81° East 444 511 41,000  Level Denver Center
Thu 06:47:20 PM 40.9936 -103.8964 80° East 446 513 41,000  Level Denver Center
Thu 06:48:22 PM 41.0133 -103.7158 82° East 445 512 41,000  Level Denver Center
Thu 06:49:24 PM 41.0308 -103.5669 81° East 437 503 41,000  Level Denver Center
Thu 06:50:26 PM 41.0497 -103.3953 82° East 427 491 41,000  Level Denver Center
Thu 06:51:28 PM 41.0658 -103.2500 82° East 421 484 41,000  Level Denver Center
Thu 06:52:30 PM 41.0831 -103.1003 81° East 425 489 41,000  Level Denver Center
Thu 06:53:32 PM 41.1008 -102.9250 82° East 428 493 41,000  Level Denver Center
Thu 06:54:34 PM 41.1131 -102.7711 84° East 435 501 41,000  Level Denver Center
Thu 06:55:36 PM 41.1264 -102.5939 84° East 433 498 41,000  Level Denver Center
Thu 06:56:38 PM 41.1378 -102.4422 84° East 433 498 41,000  Level Denver Center
Thu 06:57:40 PM 41.1511 -102.2656 84° East 431 496 41,000  Level Denver Center
Thu 06:58:41 PM 41.1619 -102.1156 84° East 428 493 41,000  Level Denver Center
Thu 06:59:43 PM 41.1761 -101.9406 84° East 428 493 41,000  Level Denver Center
Thu 07:00:45 PM 41.1861 -101.7906 85° East 427 491 41,000  Level Denver Center
Thu 07:01:47 PM 41.1967 -101.6397 85° East 428 493 41,000  Level Denver Center
Thu 07:02:49 PM 41.2083 -101.4644 85° East 426 490 41,000  Level Denver Center
Thu 07:03:51 PM 41.2189 -101.3136 85° East 427 491 41,000  Level Denver Center
Thu 07:04:53 PM 41.2297 -101.1372 85° East 429 494 41,000  Level Denver Center
Thu 07:05:55 PM 41.2403 -100.9844 85° East 431 496 41,000  Level Denver Center
Thu 07:06:57 PM 41.2522 -100.8064 85° East 431 496 41,000  Level Denver Center
Thu 07:07:59 PM 41.2617 -100.6514 85° East 435 501 41,000  Level Denver Center
Thu 07:09:01 PM 41.2725 -100.4722 85° East 434 499 41,000  Level Denver Center
Thu 07:10:03 PM 41.2819 -100.3192 85° East 433 498 41,000  Level Denver Center
Thu 07:11:05 PM 41.2900 -100.1664 86° East 433 498 41,000  Level Denver Center
Thu 07:12:07 PM 41.2994 -99.9889 86° East 431 496 41,000  Level Denver Center
Thu 07:13:09 PM 41.3081 -99.8350 86° East 433 498 41,000  Level Denver Center
Thu 07:14:11 PM 41.3172 -99.6567 86° East 433 498 41,000  Level Denver Center
Thu 07:15:13 PM 41.3247 -99.5033 86° East 434 499 41,000  Level Denver Center
Thu 07:16:16 PM 41.3325 -99.3375 86° East 434 499 41,000  Level Denver Center
Thu 07:17:18 PM 41.3411 -99.1758 86° East 436 502 41,000  Level Denver Center
Thu 07:18:20 PM 41.3489 -99.0125 86° East 438 504 41,000  Level Denver Center
Thu 07:19:22 PM 41.3569 -98.8481 86° East 439 505 41,000  Level Denver Center
Thu 07:20:24 PM 41.3642 -98.6803 87° East 444 511 41,000  Level Denver Center
Thu 07:21:26 PM 41.3714 -98.4817 87° East 444 511 41,000  Level Denver Center
Thu 07:22:42 PM 41.3786 -98.2850 87° East 445 512 41,000  Level Minneapolis Center
Thu 07:23:44 PM 41.3836 -98.1219 88° East 442 509 41,000  Level Minneapolis Center
Thu 07:24:46 PM 41.3886 -97.9567 88° East 441 507 41,000  Level Minneapolis Center
Thu 07:25:48 PM 41.3936 -97.7944 88° East 441 507 41,000  Level Minneapolis Center
Thu 07:26:50 PM 41.3975 -97.6325 88° East 439 505 41,000  Level Minneapolis Center
Thu 07:27:52 PM 41.4019 -97.4378 88° East 439 505 41,000  Level Minneapolis Center
Thu 07:28:54 PM 41.4061 -97.2761 88° East 438 504 41,000  Level Minneapolis Center
Thu 07:29:56 PM 41.4094 -97.1144 88° East 438 504 41,000  Level Minneapolis Center
Thu 07:30:58 PM 41.4133 -96.9525 88° East 437 503 41,000  Level Minneapolis Center
Thu 07:32:00 PM 41.4178 -96.7903 88° East 438 504 41,000  Level Minneapolis Center
Thu 07:33:02 PM 41.4211 -96.6283 88° East 438 504 41,000  Level Minneapolis Center
Thu 07:34:04 PM 41.4239 -96.4672 89° East 437 503 41,000  Level Minneapolis Center
Thu 07:35:06 PM 41.4261 -96.2708 89° East 442 509 41,000  Level Minneapolis Center
Thu 07:36:09 PM 41.4281 -96.1100 89° East 436 502 41,000  Level Minneapolis Center
Thu 07:37:11 PM 41.4297 -95.9500 89° East 433 498 41,000  Level Minneapolis Center
Thu 07:38:13 PM 41.4319 -95.7900 89° East 432 497 41,000  Level Minneapolis Center
Thu 07:39:15 PM 41.4344 -95.6186 89° East 429 494 41,000  Level Minneapolis Center
Thu 07:40:17 PM 41.4353 -95.4611 90° East 426 490 41,000  Level Minneapolis Center
Thu 07:41:19 PM 41.4372 -95.3022 89° East 428 493 41,000  Level Minneapolis Center
Thu 07:42:21 PM 41.4386 -95.1431 89° East 430 495 41,000  Level Minneapolis Center
Thu 07:43:23 PM 41.4397 -94.9556 89° East 424 488 41,000  Level Minneapolis Center
Thu 07:44:25 PM 41.4414 -94.7989 89° East 424 488 41,000  Level Minneapolis Center
Thu 07:45:27 PM 41.4408 -94.6428 90° East 422 486 41,000  Level Minneapolis Center
Thu 07:46:29 PM 41.4406 -94.4886 90° East 419 482 41,000  Level Minneapolis Center
Thu 07:47:31 PM 41.4406 -94.3333 90° East 419 482 41,000  Level Minneapolis Center
Thu 07:48:33 PM 41.4394 -94.1856 91° East 414 476 41,000  Level Minneapolis Center
Thu 07:49:36 PM 41.4375 -94.0047 91° East 412 474 41,000  Level Minneapolis Center
Thu 07:50:38 PM 41.4381 -93.8514 90° East 414 476 41,000  Level Minneapolis Center
Thu 07:51:40 PM 41.4361 -93.6969 91° East 418 481 41,000  Level Minneapolis Center
Thu 07:52:42 PM 41.4419 -93.5431 87° East 418 481 41,000  Level Minneapolis Center
Thu 07:53:44 PM 41.4511 -93.3842 86° East 426 490 41,000  Level Minneapolis Center
Thu 07:54:46 PM 41.4583 -93.1942 87° East 430 495 41,000  Level Minneapolis Center
Thu 07:55:48 PM 41.4658 -93.0383 86° East 428 493 41,000  Level Minneapolis Center
Thu 07:56:50 PM 41.4728 -92.8814 87° East 426 490 41,000  Level Minneapolis Center
Thu 07:57:52 PM 41.4792 -92.7247 87° East 426 490 41,000  Level Minneapolis Center
Thu 07:58:33 PM 41.4844 -92.5986 87° East 424 488 41,000  Level Chicago Center
Thu 07:59:39 PM 41.4906 -92.4428 87° East 424 488 41,000  Level Chicago Center
Thu 08:00:41 PM 41.4961 -92.2742 87° East 425 489 41,000  Level Chicago Center
Thu 08:01:43 PM 41.5014 -92.1150 87° East 430 495 41,000  Level Chicago Center
Thu 08:02:45 PM 41.5078 -91.9631 87° East 424 488 41,000  Level Chicago Center
Thu 08:03:47 PM 41.5142 -91.7742 87° East 429 494 41,000  Level Chicago Center
Thu 08:04:49 PM 41.5189 -91.6169 88° East 430 495 41,000  Level Chicago Center
Thu 08:05:51 PM 41.5228 -91.4592 88° East 431 496 41,000  Level Chicago Center
Thu 08:06:53 PM 41.5258 -91.3031 88° East 428 493 41,000  Level Chicago Center
Thu 08:07:55 PM 41.5283 -91.1464 89° East 428 493 41,000  Level Chicago Center
Thu 08:08:57 PM 41.5314 -90.9589 89° East 427 491 41,000  Level Chicago Center
Thu 08:09:59 PM 41.5347 -90.8008 88° East 430 495 41,000  Level Chicago Center
Thu 08:11:02 PM 41.5367 -90.6453 89° East 425 489 41,000  Level Chicago Center
Thu 08:12:04 PM 41.5394 -90.4667 89° East 428 493 41,000  Level Chicago Center
Thu 08:13:06 PM 41.5414 -90.3081 89° East 427 491 41,000  Level Chicago Center
Thu 08:14:08 PM 41.5428 -90.1503 89° East 425 489 41,000  Level Chicago Center
Thu 08:15:10 PM 41.5450 -89.9922 89° East 425 489 41,000  Level Chicago Center
Thu 08:16:12 PM 41.5461 -89.8378 89° East 418 481 41,000  Level Chicago Center
Thu 08:17:14 PM 41.5475 -89.6794 89° East 422 486 41,000  Level Chicago Center
Thu 08:18:16 PM 41.5483 -89.5050 90° East 420 483 41,000  Level Chicago Center
Thu 08:20:20 PM 41.5497 -89.1936 90° East 421 484 41,000  Level Chicago Center
Thu 08:21:22 PM 41.5333 -89.0097 97° East 419 482 41,000  Level Chicago Center
Thu 08:22:24 PM 41.5147 -88.8575 99° East 420 483 41,000  Level Chicago Center
Thu 08:23:26 PM 41.4944 -88.7039 100° East 422 486 41,000  Level Chicago Center
Thu 08:24:28 PM 41.4753 -88.5517 99° East 421 484 41,000  Level Chicago Center
Thu 08:25:30 PM 41.4542 -88.3997 100° East 419 482 41,000  Level Chicago Center
Thu 08:26:32 PM 41.4297 -88.2258 101° East 418 481 41,000  Level Chicago Center
Thu 08:27:34 PM 41.4119 -88.0667 98° East 425 489 41,000  Level Chicago Center
Thu 08:28:36 PM 41.3919 -87.9144 100° East 419 482 41,000  Level Chicago Center
Thu 08:29:38 PM 41.3647 -87.7392 102° East 424 488 41,000  Level Chicago Center
Thu 08:30:40 PM 41.3439 -87.5875 100° East 420 483 41,000  Level Chicago Center
Thu 08:31:42 PM 41.3225 -87.4369 101° East 419 482 41,000  Level Chicago Center
Thu 08:32:44 PM 41.3008 -87.2869 101° East 416 479 41,000  Level Chicago Center
Thu 08:33:46 PM 41.2786 -87.1361 101° East 418 481 41,000  Level Chicago Center
Thu 08:34:48 PM 41.2531 -86.9572 101° East 414 476 41,000  Level Chicago Center
Thu 08:35:51 PM 41.2289 -86.8072 102° East 417 480 41,000  Level Chicago Center
Thu 08:36:53 PM 41.2036 -86.6711 104° East 415 478 41,000  Level Chicago Center
Thu 08:37:55 PM 41.1783 -86.5225 103° East 414 476 41,000  Level Chicago Center
Thu 08:38:57 PM 41.1456 -86.3458 104° East 413 475 41,000 -629 Level Chicago Center
Thu 08:39:59 PM 41.1200 -86.1994 103° East 411 473 39,700 -1,210 Descending Chicago Center
Thu 08:41:01 PM 41.0944 -86.0583 103° East 400 460 38,500 -1,113 Descending Chicago Center
Thu 08:42:03 PM 41.0703 -85.9289 104° East 371 427 37,400 -1,113 Descending Chicago Center
Thu 08:43:05 PM 41.0467 -85.8003 104° East 364 419 36,200 -1,317 Descending Chicago Center
Thu 08:44:06 PM 41.0161 -85.6381 104° East 376 433 34,700 -1,707 Descending Chicago Center
Thu 08:45:08 PM 40.9903 -85.4997 104° East 387 445 32,700 -2,032 Descending Chicago Center
Thu 08:46:10 PM 40.9653 -85.3622 103° East 389 448 30,500 -1,790 Descending Chicago Center
Thu 08:47:12 PM 40.9411 -85.2311 104° East 376 433 29,000 -720 Descending Chicago Center
Thu 08:48:15 PM 40.9175 -85.1089 104° East 358 412 29,000 -720 Level Chicago Center
Thu 08:49:17 PM 40.8914 -84.9750 104° East 368 423 27,500 -1,839 Descending Chicago Center
Thu 08:50:19 PM 40.8617 -84.8158 104° East 374 430 25,200 -1,694 Descending Chicago Center
Thu 08:51:21 PM 40.8303 -84.6986 109° East 350 403 24,000 -2,177 Descending Chicago Center
Thu 08:52:23 PM 40.7917 -84.5794 113° Southeast 353 406 20,700 -2,419 Descending Chicago Center
Thu 08:53:25 PM 40.7556 -84.4586 111° Southeast 358 412 19,000 -1,258 Descending Chicago Center
Thu 08:54:27 PM 40.7208 -84.3483 113° Southeast 334 384 18,100 -968 Descending Chicago Center
Thu 08:55:29 PM 40.6767 -84.2092 113° Southeast 341 392 17,000 -1,016 Descending Chicago Center
Thu 08:56:31 PM 40.6403 -84.0928 112° Southeast 344 396 16,000 -1,790 Descending Chicago Center
Thu 08:57:33 PM 40.6056 -83.9814 112° Southeast 336 387 13,300 -2,468 Descending Chicago Center
Thu 08:58:35 PM 40.5692 -83.8722 114° Southeast 329 379 10,900 -1,161 Descending Chicago Center
Thu 08:59:37 PM 40.5378 -83.7664 111° Southeast 317 365 10,900  Level Chicago Center
Thu 09:00:39 PM 40.5011 -83.6556 113° Southeast 326 375 10,900 57 Level Chicago Center
Thu 09:01:22 PM 40.4661 -83.5625 116° Southeast 321 369 11,000 58 Climbing Indianapolis Center
Thu 09:02:23 PM 40.4256 -83.4647 119° Southeast 301 346 11,000 -218 Level Indianapolis Center
Thu 09:03:12 PM 40.3933 -83.3850 118° Southeast 299 344 10,600 -517 Descending Indianapolis Center
Thu 09:04:19 PM 40.3522 -83.2903 120° Southeast 268 308 10,000 -300 Descending Indianapolis Center
Thu 09:05:12 PM 40.3264 -83.2267 118° Southeast 275 316 10,000 -400 Level Indianapolis Center
Thu 09:05:19 PM 40.3125 -83.2014 126° Southeast 288 331 9,600 -2,164 Descending Indianapolis Center
Thu 09:06:13 PM 40.2789 -83.1203 118° Southeast 279 321 7,800 -1,869 Descending Indianapolis Center
Thu 09:06:20 PM 40.2744 -83.1156 141° Southeast 277 319 7,700 -1,742 Descending Indianapolis Center
Thu 09:07:15 PM 40.2444 -83.0381 117° Southeast 263 303 6,000 -1,672 Descending Indianapolis Center
Thu 09:07:21 PM 40.2425 -83.0336 120° Southeast 254 292 6,000  Level Indianapolis Center
Thu 09:08:17 PM 40.2103 -82.9567 119° Southeast 256 295 6,000  Level Indianapolis Center
Thu 09:08:21 PM 40.2047 -82.9453 123° Southeast 255 293 6,000 -915 Level Indianapolis Center
Thu 09:09:16 PM 40.1772 -82.8806 119° Southeast 239 275 5,100 -947 Descending Indianapolis Center
Thu 09:09:18 PM 40.1758 -82.8792 143° Southeast 249 287 5,100 -1,125 Level Indianapolis Center
Thu 09:10:20 PM 40.1483 -82.8106 118° Southeast 222 255 3,900 -1,292 Descending Indianapolis Center
Thu 09:10:23 PM 40.1447 -82.8014 117° Southeast 204 235 3,700 -857 Descending Indianapolis Center
Thu 09:11:23 PM 40.0994 -82.7669 150° Southeast 180 207 3,000 -350 Descending Indianapolis Center
Thu 09:12:23 PM 40.0572 -82.7619 175° South 184 212 3,000  Level Indianapolis Center
Thu 09:12:24 PM 40.0475 -82.7614 177° South 181 208 3,000 -590 Level Indianapolis Center
Thu 09:13:24 PM 40.0069 -82.7628 182° South 182 209 2,400 -689 Descending Indianapolis Center
Thu 09:13:25 PM 39.9986 -82.7675 203° Southwest 173 199 2,300 -873 Descending Indianapolis Center
Thu 09:14:19 PM 39.9978 -82.8219 269° West 156 180 1,600 -689 Descending Indianapolis Center
Thu 09:14:26 PM 39.9983 -82.8181 79° East 174 200 1,600 -590 Level Indianapolis Center
Thu 09:15:20 PM 39.9997 -82.8686 272° West 119 137 1,000 -197 Descending Indianapolis Center
Thu 09:15:27 PM 40.0036 -82.8747 310° West 161 185 1,400 3,429 Climbing Indianapolis Center

Login

Don't have an account? Register now (free) for customized features, flight alerts, and more!